Regional Weather Roundup
Issued by NWS Charleston, WV

Home | Current Version | Previous Version | Graphics & Text | Print | Product List | Glossary On
Versions: 1 2 3 4 5 6 7 8 9 10 11 12 13 14 15 16 17 18 19 20 21 22 23 24 25 26 27 28 29 30 31 32 33 34 35 36 37 38 39 40 41 42 43 44 45 46 47 48 49 50
000
ASUS41 KRLX 171010
RWRRLX
West Virginia Regional Weather Roundup
National Weather Service Charleston WV
500 AM EST TUE JAN 17 2017

Note: "fair" indicates few or no clouds below 12,000 feet with no
significant weather and/or obstructions to visibility.

WVZ003-171100-
Northern Panhandle of West Virginia

CITY           SKY/WX    TMP DP  RH WIND       PRES   REMARKS
WHEELING       CLOUDY    47  46  97 SE6       30.01F
$$

WVZ009-171100-
Northwest West Virginia

CITY           SKY/WX    TMP DP  RH WIND       PRES   REMARKS
PARKERSBURG    LGT RAIN  53  50  89 S9        30.05F FOG
$$

WVZ006-171100-
Western West Virginia

CITY           SKY/WX    TMP DP  RH WIND       PRES   REMARKS
HUNTINGTON     RAIN      54  51  90 S8        30.04F
$$

WVZ015-171100-
West Central West Virginia

CITY           SKY/WX    TMP DP  RH WIND       PRES   REMARKS
CHARLESTON     LGT RAIN  50  48  93 CALM      30.06F FOG
$$

WVZ022-031-171100-
North Central West Virginia

CITY           SKY/WX    TMP DP  RH WIND       PRES   REMARKS
CLARKSBURG     LGT RAIN  51  48  89 CALM      30.06F
MORGANTOWN     CLOUDY    50  45  83 CALM      30.06F
$$

WVZ025-035-042-045-171100-
Southern West Virginia

CITY           SKY/WX    TMP DP  RH WIND       PRES   REMARKS
BECKLEY        CLOUDY    51  45  79 SE8       30.12F
LOGAN          LGT RAIN  55  50  82 S5        30.10R
BLUEFIELD      CLOUDY    52  44  74 VRB5      30.15S
LEWISBURG      FOG       44  44  99 E6        30.15F VSB 1/4
$$

WVZ047-171100-
Northern Mountains of West Virginia

CITY           SKY/WX    TMP DP  RH WIND       PRES   REMARKS
ELKINS         CLOUDY    45  43  93 CALM      30.11F FOG
$$

WVZ052-171100-
Eastern Panhandle of West Virginia

CITY           SKY/WX    TMP DP  RH WIND       PRES   REMARKS
MARTINSBURG    CLOUDY    36  33  89 NE3       30.18F FOG
PETERSBURG     CLOUDY    39  37  91 CALM      30.17F
$$




USA.gov is the U.S. government's official web portal to all federal, state and local government web resources and services.